This demonstration page uses our WeatherBlox Daily Observations layout. Learn more.

41.55636, -103.73856

Hourly Observations for August 24, 2016

Temp ( °F °C ) Dew Point ( °F °C ) Humidity (%) Winds ( mph kmh ) Pressure ( in mb ) Visibility ( mi km ) Precip ( " mm )
12:53 am 00:53 Clear 58 14.4 44 6.7 60 60 E 3 6 29.96 1015 10 16.0934 0 0
1:53 am 01:53 Clear 56 13.3 47 8.3 72 72 E 5 7 29.97 1015 10 16.0934 0 0
2:53 am 02:53 Clear 60 15.6 40 4.4 47 47 E 10 17 29.98 1015 10 16.0934 0 0
3:53 am 03:53 Clear 57 13.9 43 6.1 60 60 ENE 8 13 29.98 1015 10 16.0934 0 0
4:53 am 04:53 Clear 57 13.9 42 5.6 58 58 ENE 6 9 30.01 1016 10 16.0934 0 0
5:53 am 05:53 Clear 58 14.4 41 5 53 53 ENE 7 11 30.03 1017 10 16.0934 0 0
6:53 am 06:53 Cloudy 58 14.4 43 6.1 58 58 NNE 6 9 30.08 1019 10 16.0934 0 0
7:53 am 07:53 Cloudy 59 15 45 7.2 60 60 E 8 13 30.11 1020 10 16.0934 0 0
8:53 am 08:53 Mostly Cloudy 61 16.1 42 5.6 50 50 ESE 6 9 30.13 1020 10 16.0934 0 0
9:53 am 09:53 Mostly Cloudy 62 16.7 44 6.7 52 52 undefined N/A 30.14 1021 10 16.0934 0 0
10:53 am 10:53 Mostly Cloudy 66 18.9 43 6.1 43 43 ESE 10 17 30.14 1021 10 16.0934 0 0
11:53 am 11:53 Sunny 68 20 44 6.7 42 42 E 7 11 30.12 1020 10 16.0934 0 0
12:53 pm 12:53 Sunny 69 20.6 45 7.2 42 42 VRB 5 7 30.1 1019 10 16.0934 0 0
1:53 pm 13:53 Sunny 70 21.1 44 6.7 39 39 ENE 7 11 30.09 1019 10 16.0934 0 0
2:53 pm 14:53 Sunny 72 22.2 45 7.2 38 38 E 9 15 30.05 1018 10 16.0934 0 0
3:53 pm 15:53 Sunny 74 23.3 47 8.3 38 38 E 10 17 30.03 1017 10 16.0934 0 0
4:53 pm 16:53 Sunny 73 22.8 49 9.4 43 43 E 12 19 30.05 1018 10 16.0934 0 0
5:53 pm 17:53 Sunny 71 21.7 48 8.9 44 44 E 14 22 30.06 1018 10 16.0934 0 0
6:53 pm 18:53 Sunny 67 19.4 44 6.7 44 44 ESE 10 17 30.08 1019 10 16.0934 0 0
7:53 pm 19:53 Mostly Clear 64 17.8 46 7.8 52 52 E 7 11 30.09 1019 10 16.0934 0 0
8:53 pm 20:53 Cloudy 63 17.2 46 7.8 54 54 NNE 13 20 30.14 1021 10 16.0934 0 0
9:53 pm 21:53 Cloudy 59 15 48 8.9 67 67 NNE 13 20 30.14 1021 10 16.0934 0 0.0254
10:53 pm 22:53 Mostly Cloudy 58 14.4 48 8.9 70 70 NE 14 22 30.13 1020 10 16.0934 0 0.0254
11:53 pm 23:53 Cloudy 55 12.8 49 9.4 80 80 S 7 11 30.13 1020 10 16.0934 0 0

Powered by AerisWeather